| time (UTC) | temp F | wind direction | speed knots | gust knots | rain 1hr in | rain 24hr in | rain mn in | humidity % | barometer mb |
| 20260505193026 | 54 | 170 | 2.6 | 3.5 | 0.00 | 0.00 | 0.00 | 88 | 1014.4 |
| 20260505192025 | 55 | 180 | 3.5 | 4.3 | 0.00 | 0.00 | 0.00 | 86 | 1014.3 |
| 20260505191024 | 55 | 181 | 2.6 | 3.5 | 0.00 | 0.00 | 0.00 | 86 | 1014.2 |
| 20260505190023 | 55 | 162 | 2.6 | 6.1 | 0.00 | 0.00 | 0.00 | 86 | 1013.9 |
| 20260505185022 | 56 | 163 | 1.7 | 2.6 | 0.00 | 0.00 | 0.00 | 84 | 1013.9 |
| 20260505184020 | 58 | 185 | 2.6 | 3.5 | 0.00 | 0.00 | 0.00 | 80 | 1013.9 |
| 20260505183040 | 58 | 206 | 2.6 | 6.1 | 0.00 | 0.00 | 0.00 | 76 | 1013.8 |
| 20260505182038 | 59 | 173 | 1.7 | 3.5 | 0.00 | 0.00 | 0.00 | 77 | 1013.8 |
| 20260505181016 | 59 | 157 | 1.7 | 3.5 | 0.00 | 0.00 | 0.00 | 75 | 1013.9 |
| 20260505180115 | 59 | 215 | 3.5 | 6.1 | 0.00 | 0.00 | 0.00 | 75 | 1013.9 |
| 20260505175114 | 59 | 162 | 2.6 | 3.5 | 0.00 | 0.00 | 0.00 | 77 | 1014.0 |
| 20260505174113 | 59 | 163 | 1.7 | 3.5 | 0.00 | 0.00 | 0.00 | 78 | 1013.9 |
| 20260505173112 | 58 | 179 | 2.6 | 5.2 | 0.00 | 0.00 | 0.00 | 78 | 1014.0 |
| 20260505172111 | 58 | 152 | 4.3 | 7.8 | 0.00 | 0.00 | 0.00 | 79 | 1013.8 |
| 20260505171109 | 57 | 163 | 4.3 | 6.1 | 0.00 | 0.00 | 0.00 | 82 | 1013.6 |
| 20260505170108 | 56 | 179 | 3.5 | 6.1 | 0.00 | 0.00 | 0.00 | 82 | 1013.7 |
| 20260505165107 | 56 | 149 | 1.7 | 4.3 | 0.00 | 0.00 | 0.00 | 83 | 1013.6 |
| 20260505164146 | 56 | 161 | 2.6 | 4.3 | 0.00 | 0.00 | 0.00 | 82 | 1013.7 |
| 20260505163105 | 56 | 140 | 1.7 | 2.6 | 0.00 | 0.00 | 0.00 | 83 | 1013.8 |
| 20260505162124 | 56 | 112 | 0.9 | 2.6 | 0.00 | 0.00 | 0.00 | 83 | 1013.8 |
| 20260505161102 | 56 | 223 | 0.9 | 2.6 | 0.00 | 0.00 | 0.00 | 83 | 1014.0 |
| 20260505153058 | 56 | 173 | 0.9 | 4.3 | 0.00 | 0.00 | 0.00 | 82 | 1013.9 |
| 20260505152056 | 57 | 244 | 3.5 | 5.2 | 0.00 | 0.00 | 0.00 | 80 | 1013.9 |
| 20260505151055 | 58 | 217 | 2.6 | 4.3 | 0.00 | 0.00 | 0.00 | 77 | 1013.8 |
| 20260505125038 | 61 | 277 | 3.5 | 5.2 | 0.00 | 0.00 | 0.00 | 75 | 1013.6 |
| 20260505124037 | 60 | 240 | 3.5 | 8.7 | 0.00 | 0.00 | 0.00 | 74 | 1013.6 |
| 20260505123037 | 59 | 291 | 1.7 | 4.3 | 0.00 | 0.00 | 0.00 | 76 | 1013.7 |
| 20260505122035 | 59 | 226 | 3.5 | 4.3 | 0.00 | 0.00 | 0.00 | 76 | 1013.7 |
| 20260505121034 | 59 | 20 | 0.9 | 2.6 | 0.00 | 0.00 | 0.00 | 78 | 1013.6 |
| 20260505120032 | 59 | 123 | 0.9 | 1.7 | 0.00 | 0.00 | 0.00 | 78 | 1013.7 |
| 20260505115031 | 57 | 85 | 1.7 | 4.3 | 0.00 | 0.00 | 0.00 | 80 | 1013.7 |
| 20260505114030 | 57 | 343 | 2.6 | 3.5 | 0.00 | 0.00 | 0.00 | 84 | 1013.8 |
| 20260505113050 | 56 | 161 | 0.9 | 1.7 | 0.00 | 0.00 | 0.00 | 84 | 1013.9 |
| 20260505112028 | 56 | 226 | 0.9 | 3.5 | 0.00 | 0.00 | 0.00 | 84 | 1013.9 |
| 20260505111047 | 56 | 355 | 0.9 | 2.6 | 0.00 | 0.00 | 0.00 | 85 | 1013.9 |
| 20260505102042 | 55 | 355 | 1.7 | 1.7 | 0.00 | 0.00 | 0.00 | 85 | 1014.3 |
| 20260505101039 | 55 | 9 | 1.7 | 2.6 | 0.00 | 0.00 | 0.00 | 85 | 1014.3 |
| 20260505100018 | 55 | 16 | 0.9 | 1.7 | 0.00 | 0.00 | 0.00 | 85 | 1014.2 |
| 20260505095017 | 55 | 51 | 1.7 | 2.6 | 0.00 | 0.00 | 0.00 | 84 | 1014.1 |
| 20260505094116 | 55 | 51 | 0.9 | 2.6 | 0.00 | 0.00 | 0.00 | 85 | 1014.1 |
| 20260505093114 | 54 | 124 | 0.9 | 1.7 | 0.00 | 0.00 | 0.00 | 86 | 1014.2 |
| 20260505092134 | 54 | 261 | 1.7 | 3.5 | 0.00 | 0.00 | 0.00 | 87 | 1014.1 |
| 20260505091112 | 54 | 320 | 0.9 | 4.3 | 0.00 | 0.00 | 0.00 | 87 | 1014.1 |
| 20260505090111 | 54 | 13 | 1.7 | 3.5 | 0.00 | 0.00 | 0.00 | 87 | 1014.0 |
| 20260505085110 | 54 | 44 | 1.7 | 4.3 | 0.00 | 0.00 | 0.00 | 88 | 1014.1 |
| 20260505084109 | 54 | 77 | 1.7 | 3.5 | 0.00 | 0.00 | 0.00 | 89 | 1014.3 |
| 20260505083108 | 53 | 79 | 1.7 | 4.3 | 0.00 | 0.00 | 0.00 | 89 | 1014.3 |
| 20260505082107 | 53 | 97 | 0.9 | 2.6 | 0.00 | 0.00 | 0.00 | 90 | 1014.4 |
| 20260505081105 | 53 | 144 | 3.5 | 4.3 | 0.00 | 0.00 | 0.00 | 90 | 1014.5 |
| 20260505080104 | 53 | 120 | 1.7 | 4.3 | 0.00 | 0.00 | 0.00 | 91 | 1014.6 |
| 20260505075104 | 52 | 86 | 1.7 | 4.3 | 0.00 | 0.00 | 0.00 | 92 | 1014.6 |
| 20260505074102 | 52 | 86 | 2.6 | 6.1 | 0.00 | 0.00 | 0.00 | 93 | 1014.7 |
| 20260505073100 | 52 | 128 | 3.5 | 5.2 | 0.00 | 0.00 | 0.00 | 92 | 1015.0 |
| 20260505072059 | 52 | 113 | 3.5 | 6.1 | 0.00 | 0.00 | 0.00 | 92 | 1015.1 |
| 20260505071058 | 52 | 116 | 4.3 | 7.0 | 0.00 | 0.00 | 0.00 | 91 | 1015.2 |
| 20260505070117 | 52 | 131 | 3.5 | 6.1 | 0.00 | 0.00 | 0.00 | 92 | 1015.1 |
| 20260505065056 | 52 | 52 | 2.6 | 5.2 | 0.00 | 0.00 | 0.00 | 92 | 1015.3 |
| 20260505064055 | 51 | 74 | 6.1 | 10.4 | 0.00 | 0.00 | 0.00 | 91 | 1015.3 |
| 20260505063054 | 51 | 64 | 2.6 | 3.5 | 0.00 | 0.00 | 0.00 | 91 | 1015.3 |
| 20260505062053 | 51 | 91 | 1.7 | 3.5 | 0.00 | 0.00 | 0.00 | 92 | 1015.5 |
| 20260505061051 | 51 | 120 | 3.5 | 5.2 | 0.00 | 0.00 | 0.00 | 92 | 1015.4 |
| 20260505060110 | 51 | 124 | 2.6 | 5.2 | 0.00 | 0.00 | 0.00 | 92 | 1015.4 |
| 20260505055049 | 50 | 99 | 2.6 | 5.2 | 0.00 | 0.00 | 0.00 | 93 | 1015.5 |
| 20260505054047 | 50 | 66 | 3.5 | 6.1 | 0.00 | 0.00 | 0.00 | 93 | 1015.4 |
| 20260505053046 | 49 | 151 | 2.6 | 3.5 | 0.00 | 0.00 | 0.00 | 93 | 1015.4 |
| 20260505052106 | 49 | 113 | 3.5 | 5.2 | 0.00 | 0.00 | 0.00 | 94 | 1015.3 |
| 20260505051044 | 48 | 95 | 3.5 | 5.2 | 0.00 | 0.00 | 0.00 | 94 | 1015.2 |
| 20260505041037 | 48 | 142 | 2.6 | 4.3 | 0.00 | 0.00 | 0.00 | 95 | 1015.5 |
| 20260505040036 | 48 | 147 | 3.5 | 4.3 | 0.00 | 0.00 | 0.00 | 95 | 1015.5 |
| 20260505035035 | 48 | 161 | 3.5 | 5.2 | 0.00 | 0.00 | 0.00 | 95 | 1015.4 |
| 20260505034034 | 48 | 102 | 2.6 | 5.2 | 0.00 | 0.00 | 0.00 | 95 | 1015.4 |
| 20260505033032 | 48 | 84 | 1.7 | 3.5 | 0.00 | 0.00 | 0.00 | 96 | 1015.6 |
| 20260505032031 | 47 | 68 | 1.7 | 3.5 | 0.00 | 0.00 | 0.00 | 95 | 1015.6 |
| 20260505031051 | 47 | 52 | 2.6 | 3.5 | 0.00 | 0.00 | 0.00 | 95 | 1015.6 |
| 20260505030049 | 47 | 93 | 1.7 | 4.3 | 0.00 | 0.00 | 0.00 | 95 | 1015.8 |
| 20260505025048 | 47 | 66 | 2.6 | 4.3 | 0.00 | 0.00 | 0.00 | 95 | 1015.7 |
| 20260505024027 | 47 | 144 | 2.6 | 4.3 | 0.00 | 0.00 | 0.00 | 95 | 1015.8 |
| 20260505023026 | 47 | 155 | 1.7 | 4.3 | 0.00 | 0.00 | 0.00 | 95 | 1015.9 |
| 20260505022026 | 47 | 118 | 2.6 | 7.8 | 0.00 | 0.00 | 0.00 | 95 | 1015.9 |
| 20260505021024 | 47 | 145 | 4.3 | 7.8 | 0.00 | 0.00 | 0.00 | 95 | 1016.0 |
| 20260505020022 | 48 | 151 | 3.5 | 7.0 | 0.00 | 0.00 | 0.00 | 94 | 1016.0 |
| 20260505015021 | 48 | 156 | 4.3 | 7.0 | 0.00 | 0.00 | 0.00 | 95 | 1016.1 |
| 20260505014021 | 48 | 147 | 5.2 | 7.0 | 0.00 | 0.00 | 0.00 | 95 | 1016.0 |
| 20260505013019 | 48 | 140 | 3.5 | 4.3 | 0.00 | 0.00 | 0.00 | 95 | 1016.1 |
| 20260505012018 | 47 | 126 | 2.6 | 3.5 | 0.00 | 0.00 | 0.00 | 95 | 1016.2 |
| 20260505011017 | 47 | 136 | 2.6 | 4.3 | 0.00 | 0.00 | 0.00 | 95 | 1016.3 |
| 20260505010116 | 47 | 129 | 2.6 | 3.5 | 0.00 | 0.00 | 0.00 | 95 | 1016.4 |
| 20260505005115 | 47 | 128 | 3.5 | 4.3 | 0.00 | 0.00 | 0.00 | 95 | 1016.6 |
| 20260505004133 | 48 | 120 | 4.3 | 5.2 | 0.00 | 0.00 | 0.00 | 95 | 1016.7 |
| 20260505003113 | 47 | 141 | 3.5 | 5.2 | 0.00 | 0.00 | 0.00 | 95 | 1016.9 |
| 20260505002111 | 48 | 135 | 3.5 | 4.3 | 0.00 | 0.00 | 0.00 | 94 | 1017.0 |
| 20260505001110 | 48 | 143 | 3.5 | 4.3 | 0.00 | 0.00 | 0.00 | 94 | 1017.2 |
| 20260505000109 | 48 | 142 | 2.6 | 3.5 | 0.00 | 0.00 | 0.00 | 95 | 1017.1 |
| 20260504235107 | 48 | 117 | 3.5 | 4.3 | 0.00 | 0.00 | 0.00 | 95 | 1017.2 |
| 20260504234106 | 48 | 147 | 3.5 | 4.3 | 0.00 | 0.00 | 0.00 | 94 | 1017.4 |
| 20260504233106 | 48 | 149 | 4.3 | 5.2 | 0.00 | 0.00 | 0.00 | 94 | 1017.4 |
| 20260504232104 | 48 | 146 | 4.3 | 5.2 | 0.00 | 0.00 | 0.00 | 94 | 1017.6 |
| 20260504231103 | 48 | 154 | 4.3 | 5.2 | 0.00 | 0.00 | 0.00 | 94 | 1017.8 |
| 20260504225120 | 49 | 138 | 4.3 | 5.2 | 0.00 | 0.00 | 0.00 | 94 | 1017.7 |
| 20260504224120 | 49 | 136 | 3.5 | 5.2 | 0.00 | 0.00 | 0.00 | 94 | 1017.7 |
| 20260504223058 | 49 | 144 | 4.3 | 5.2 | 0.00 | 0.00 | 0.00 | 95 | 1017.9 |
| 20260504222117 | 49 | 124 | 3.5 | 4.3 | 0.00 | 0.00 | 0.00 | 95 | 1017.9 |
| 20260504221057 | 49 | 121 | 2.6 | 3.5 | 0.00 | 0.00 | 0.00 | 94 | 1018.0 |
| 20260504220055 | 49 | 101 | 3.5 | 4.3 | 0.00 | 0.00 | 0.00 | 94 | 1018.1 |
| 20260504215053 | 50 | 114 | 2.6 | 4.3 | 0.00 | 0.00 | 0.00 | 93 | 1018.0 |
| 20260504214112 | 50 | 139 | 3.5 | 4.3 | 0.00 | 0.00 | 0.00 | 93 | 1018.0 |
| 20260504213051 | 51 | 130 | 2.6 | 3.5 | 0.00 | 0.00 | 0.00 | 92 | 1018.2 |
| 20260504212050 | 51 | 158 | 2.6 | 3.5 | 0.00 | 0.00 | 0.00 | 91 | 1018.2 |
| 20260504211049 | 51 | 157 | 1.7 | 2.6 | 0.00 | 0.00 | 0.00 | 92 | 1018.3 |
| 20260504210109 | 52 | 136 | 2.6 | 3.5 | 0.00 | 0.00 | 0.00 | 92 | 1018.6 |
| 20260504205047 | 52 | 124 | 2.6 | 3.5 | 0.00 | 0.00 | 0.00 | 91 | 1018.6 |
| 20260504204045 | 52 | 139 | 2.6 | 3.5 | 0.00 | 0.00 | 0.00 | 90 | 1018.7 |
| 20260504203044 | 53 | 124 | 1.7 | 3.5 | 0.00 | 0.00 | 0.00 | 90 | 1018.6 |
| 20260504202044 | 53 | 132 | 1.7 | 2.6 | 0.00 | 0.00 | 0.00 | 90 | 1018.8 |
| 20260504201043 | 53 | 131 | 2.6 | 3.5 | 0.00 | 0.00 | 0.00 | 90 | 1018.6 |
| 20260504200041 | 53 | 125 | 1.7 | 2.6 | 0.00 | 0.00 | 0.00 | 90 | 1018.6 |
| 20260504195040 | 53 | 134 | 0.9 | 1.7 | 0.00 | 0.00 | 0.00 | 89 | 1018.6 |
| 20260504194058 | 53 | 125 | 0.9 | 1.7 | 0.00 | 0.00 | 0.00 | 87 | 1018.6 |